Faith, SD

10:39 AM MDT on September 26, 2016 (GMT -0600)
Faith

Weather History for KD07 - October, 2012

Change the Weather History Date:

Monday, October 8, 2012

  Actual Average Record
Temperature  
Mean Temperature 51 °F 50 °F  
Max Temperature 58 °F 62 °F 84 °F (2010)
Min Temperature 43 °F 38 °F 18 °F (2000)
Degree Days  
Heating Degree Days 14 15  
Month to date heating degree days 162 112  
Since 1 July heating degree days 278 344  
Cooling Degree Days 0 0  
Month to date cooling degree days 0 0  
Year to date cooling degree days 971 634  
Growing Degree Days 1 (Base 50)    
Moisture  
Dew Point 35 °F    
Average Humidity 56    
Maximum Humidity 80    
Minimum Humidity 32    
Precipitation  
Precipitation 0.00 in 0.03 in 0.09 in (2010)
Month to date precipitation 0.12 0.27  
Year to date precipitation 12.18 15.45  
Sea Level Pressure  
Sea Level Pressure 29.80 in    
Wind  
Wind Speed 17 mph (WNW)    
Max Wind Speed 28 mph    
Max Gust Speed 35 mph    
T = Trace of Precipitation, MM = Missing Value Source: NWS Daily Summary

Daily Weather History Graph

Daily Weather History Graph

Search for Another Location

Airport or City:

Trip Planner

Search our weather history database for the weather conditions in past years. The results will help you decide how hot, cold, wet, or windy it might be!

Date:

Astronomy

Oct. 08, 2012 Rise Set
Actual Time 6:55 AM MDT 6:14 PM MDT
Civil Twilight 6:26 AM MDT 6:43 PM MDT
Nautical Twilight 5:52 AM MDT 7:17 PM MDT
Astronomical Twilight 5:17 AM MDT 7:52 PM MDT
Moon No Moon Rise 2:21 PM MDT (10/8)
Length of Visible Light 12h 17m
Length of Day
11h 19m
Last Quarter, 46% of the Moon is Illuminated
Oct 8
Last Quarter
Oct 15
New
Oct 21
First Quarter
Oct 29
Full
Nov 6
Last Quarter

Hourly Weather History & Observations

Time (MDT) Temp. Windchill Dew Point Humidity Pressure Visibility Wind Dir Wind Speed Gust Speed Precip Events Conditions
12:56 AM 45.0 °F 39.3 °F 28.0 °F 52% 29.78 in - SSW 11.5 mph - N/A   Unknown
1:56 AM 46.9 °F - 28.0 °F 48% 29.76 in - SSW 13.8 mph - N/A   Unknown
2:56 AM 48.0 °F - 28.0 °F 46% 29.73 in - WSW 15.0 mph - N/A   Unknown
3:56 AM 51.1 °F - 27.0 °F 39% 29.70 in - WSW 15.0 mph - N/A   Unknown
4:56 AM 55.0 °F - 27.0 °F 34% 29.70 in - West 23.0 mph 29.9 mph N/A   Unknown
5:56 AM 52.0 °F - 28.0 °F 40% 29.73 in - WNW 16.1 mph - N/A   Unknown
6:56 AM 50.0 °F - 30.9 °F 48% 29.75 in - WNW 16.1 mph - N/A   Unknown
7:56 AM 51.1 °F - 35.1 °F 54% 29.77 in - WNW 18.4 mph 24.2 mph N/A   Unknown
8:56 AM 53.1 °F - 37.0 °F 55% 29.78 in - NW 19.6 mph 28.8 mph N/A   Unknown
9:56 AM 55.9 °F - 39.0 °F 53% 29.77 in - NW 24.2 mph 33.4 mph N/A   Unknown
10:56 AM 55.0 °F - 39.9 °F 57% 29.80 in - NW 20.7 mph 31.1 mph N/A   Unknown
11:56 AM 57.9 °F - 39.0 °F 49% 29.80 in - NW 23.0 mph 28.8 mph N/A   Unknown
12:56 PM 57.9 °F - 37.9 °F 47% 29.79 in - NW 18.4 mph 26.5 mph N/A   Unknown
1:56 PM 55.9 °F - 37.9 °F 51% 29.79 in - NW 19.6 mph 32.2 mph N/A   Unknown
2:56 PM 53.1 °F - 39.9 °F 61% 29.81 in - WNW 27.6 mph 33.4 mph N/A   Unknown
3:56 PM 52.0 °F - 39.9 °F 63% 29.80 in - West 19.6 mph 26.5 mph N/A   Unknown
4:56 PM 52.0 °F - 41.0 °F 66% 29.80 in - West 16.1 mph - N/A   Unknown
5:56 PM 50.0 °F - 42.1 °F 74% 29.82 in - West 11.5 mph - N/A   Unknown
6:56 PM 50.0 °F - 41.0 °F 71% 29.84 in - WNW 11.5 mph - N/A   Unknown
7:56 PM 48.9 °F - 42.1 °F 77% 29.85 in - West 10.4 mph - N/A   Unknown
8:56 PM 48.0 °F - 41.0 °F 77% 29.86 in - West 12.7 mph - N/A   Unknown
9:56 PM 46.9 °F - 37.0 °F 68% 29.88 in - WNW 11.5 mph - N/A   Unknown
10:56 PM 45.0 °F 40.6 °F 30.9 °F 58% 29.89 in - NW 8.1 mph - N/A   Unknown
11:56 PM 45.0 °F 37.1 °F 30.0 °F 56% 29.90 in - NW 19.6 mph 25.3 mph N/A   Unknown